Location: Fairway Park
(37.6208°N, 122.4883°W)
Time: 23:15:34
(UTC+00:00)

Daily predictions for brighter satellites

Satellite Brightness Start Highest point End
(mag) Time Altitude Azimuth Time Altitude Azimuth Time Altitude Azimuth
ISS -0.6 12:20:29 13° NE 12:20:29 13° NE 12:20:57 10° NE
ALOS 3.1 12:18:33 10° NNE 12:22:03 47° NE 12:22:03 47° NE
Milstar 3 Cent rocket 4.3 12:26:13 11° SSE 12:26:51 11° SSE 12:28:03 10° SE
Cosmos 2082 Rocket 2.7 12:33:02 48° NNW 12:33:02 48° NNW 12:37:26 10° NNE
Cosmos 1461 3.8 12:34:48 47° NE 12:35:13 49° NE 12:39:21 10° SE
Okean 3 Rocket 4.1 12:31:49 10° N 12:36:10 58° E 12:40:31 10° SSE
FENGYUN 3A 3.5 12:31:40 10° NNE 12:37:08 88° WNW 12:38:01 64° SSW
DELTA 2 R/B (1) 4.5 12:39:11 35° S 12:39:11 35° S 12:43:08 10° SE
Meteor 2-15 Rocket 4.5 12:32:38 10° S 12:38:45 78° E 12:44:56 10° N
Meteor 1-31 Rocket 4.3 12:35:10 10° NNE 12:38:46 35° E 12:41:55 12° SSE
Meteor 2-3 Rocket 3.6 12:33:50 10° N 12:39:33 88° W 12:45:19 10° S
Cosmos 292 Rocket 4.2 12:36:40 21° N 12:39:46 61° ENE 12:44:31 10° SSE
SeaSat 1 2.4 12:36:19 10° SSE 12:41:14 84° ENE 12:42:38 48° NNW
Cosmos 1980 Rocket 2.2 12:39:24 16° NNW 12:44:02 82° ENE 12:49:44 10° SSE
Cosmos 1553 Rocket 4.0 12:40:22 10° S 12:46:46 86° E 12:53:10 10° N
Nadezhda 2 Rocket 4.4 12:41:33 10° N 12:47:54 74° W 12:54:18 10° S
Cosmos 1842 Rocket 4.3 12:51:17 10° S 12:55:33 52° E 12:59:48 10° NNE
Cosmos 1833 Rocket 4.4 12:58:58 17° NNW 12:58:58 17° NNW 13:01:08 10° N
Cosmos 1452 Rocket 3.5 12:57:43 54° W 12:58:06 56° WSW 13:03:13 10° S
Cosmos 2221 3.1 12:56:46 10° S 13:01:05 59° E 13:05:23 10° NNE
METEOR-M 4.0 12:56:30 10° N 13:01:50 71° WNW 13:06:08 16° SSW
H-2A R/B 1.9 13:00:16 10° S 13:04:40 76° WSW 13:08:59 10° NNW
Iridium 4 Rocket 3.6 13:04:34 40° SW 13:05:49 48° W 13:10:40 10° N
Cosmos 1697 Rocket 4.1 13:10:49 21° SW 13:10:49 21° SW 13:12:59 10° SSW
ADEOS 3.5 13:03:00 10° NNE 13:08:15 88° WNW 13:13:29 10° SSW
SL-16 R/B 3.6 13:07:01 10° N 13:12:18 38° ENE 13:17:33 10° SE
Cosmos 1110 Rocket 3.9 13:10:20 10° NNW 13:15:39 87° WSW 13:20:53 10° SSE
NOSS 2-2 (C) 2.9 13:15:04 39° SSW 13:16:15 83° ESE 13:19:49 10° NE
BREEZE M DEB (TANK) 4.4 13:14:56 11° N 13:16:17 13° NNE 13:18:24 10° NE
SJ-12 3.8 13:14:45 10° N 13:18:51 86° W 13:22:53 10° SSW
Cosmos 2369 4.3 13:19:04 31° W 13:19:30 32° WSW 13:24:29 10° SSW
H-2A R/B 3.8 13:17:35 10° NNE 13:21:22 47° E 13:25:07 10° S
S3M 3.9 13:23:26 10° SSW 13:29:28 63° W 13:35:32 10° N
NOSS 2-2 (E) 3.3 13:31:20 34° W 13:32:18 45° NW 13:35:50 10° NNE
Meteor PRIRODA 3.6 13:34:23 10° NNE 13:38:06 85° ESE 13:41:49 10° SSW
YAOGAN 6 3.5 13:35:57 10° NNE 13:39:25 50° E 13:42:49 10° S
COSMO-SKYMED 1 2.5 13:35:13 10° S 13:39:32 72° WSW 13:43:53 10° NNW
X-37B 2.5 13:40:49 15° NW 13:42:26 21° N 13:44:56 10° ENE
Cosmos 1269 Rocket 4.1 13:37:52 10° SSW 13:43:02 56° WNW 13:48:14 10° N
Cosmos 1745 Rocket 4.0 13:37:04 10° NNW 13:43:11 59° W 13:49:21 10° S
ATLAS CENTAUR R/B 2.3 13:41:01 10° NNW 13:44:57 49° ENE 13:49:09 10° SE
Cosmos 1743 Rocket 3.5 13:48:57 10° NNW 13:53:25 73° W 13:57:52 10° S
Cosmos 1805 Rocket 4.3 13:50:05 10° N 13:54:29 57° E 13:58:52 10° SSE
ISS -1.7 13:53:27 13° NW 13:54:46 16° NNW 13:56:57 10° NNE
CZ-4B R/B 3.2 13:51:20 10° N 13:55:38 56° WNW 14:00:01 10° SSW
Cosmos 1709 Rocket 4.0 13:50:23 10° N 13:56:45 82° W 14:03:07 10° S
ALOS 4.0 13:58:06 10° NW 14:00:02 12° WNW 14:00:33 12° WNW
SL-27 R/B 2.6 13:59:33 10° SSW 14:02:54 48° WNW 14:06:21 10° N
Cosmos 1862 3.9 14:02:36 10° NNW 14:06:21 36° W 14:10:03 10° SSW
MOS 1 Rocket 3.6 14:02:36 10° SSW 14:06:30 35° W 14:10:27 10° NNW
CZ-4B R/B 2.3 14:04:03 10° SSW 14:06:52 27° W 14:09:39 10° NW
Cosmos 1933 3.9 14:06:22 10° S 14:10:18 62° E 14:14:17 10° NNE
Cosmos 2360 Rocket 3.1 14:06:38 10° NNW 14:12:11 52° ENE 14:17:41 10° SE
Meteor 1-31 Rocket 4.5 14:10:35 10° NNW 14:12:50 15° WNW 14:15:03 10° WSW
ERS-2 2.1 14:11:49 10° S 14:15:24 63° WSW 14:19:01 10° NNW
PSLV R/B 3.8 14:13:38 10° N 14:17:42 78° WNW 14:21:39 10° SSW
SeaSat 1 4.3 14:18:21 10° WSW 14:19:12 10° WSW 14:20:05 10° W
USA 215 3.5 14:12:56 10° NE 14:19:30 79° SE 14:26:03 10° SW
PSLV R/B 4.1 14:16:02 10° S 14:20:10 56° W 14:24:18 10° NNW
Cosmos 2315 Rocket 4.2 14:14:11 10° SSW 14:20:11 48° W 14:26:11 10° N
CZ-4B R/B 4.5 14:16:17 10° NNE 14:21:28 46° E 14:26:32 10° S
Lacrosse 4 Rocket 4.0 14:18:17 10° N 14:21:45 21° NE 14:25:10 10° ESE
Meteor 1-4 Rocket 4.0 14:19:46 10° WSW 14:22:33 20° WNW 14:25:20 10° NNW
Cosmos 1606 3.3 14:19:34 10° SW 14:23:07 35° WNW 14:26:43 10° NNW
SAR-Lupe-4 3.7 14:21:41 10° S 14:25:10 55° WSW 14:28:42 10° NNW
Meteor 2-17 Rocket 4.5 14:20:03 10° NNW 14:25:57 58° W 14:31:51 10° S
